| time (UTC) | temp F | wind direction | speed knots | gust knots | rain 1hr in | rain 24hr in | rain mn in | humidity % | barometer mb |
| 20260507015548 | 72 | 241 | 3.5 | 7.8 | 0.00 | 0.00 | 0.00 | 63 | 1017.7 |
| 20260507015045 | 72 | 245 | 2.6 | 8.7 | 0.00 | 0.00 | 0.00 | 63 | 1017.7 |
| 20260507014602 | 72 | 239 | 4.3 | 8.7 | 0.00 | 0.00 | 0.00 | 62 | 1017.7 |
| 20260507014045 | 72 | 261 | 4.3 | 8.7 | 0.00 | 0.00 | 0.00 | 62 | 1017.7 |
| 20260507013545 | 73 | 233 | 3.5 | 7.8 | 0.00 | 0.00 | 0.00 | 62 | 1017.6 |
| 20260507013056 | 73 | 293 | 4.3 | 7.8 | 0.00 | 0.00 | 0.00 | 61 | 1017.7 |
| 20260507012544 | 74 | 256 | 3.5 | 7.8 | 0.00 | 0.00 | 0.00 | 62 | 1017.8 |
| 20260507012045 | 74 | 243 | 3.5 | 8.7 | 0.00 | 0.00 | 0.00 | 60 | 1017.8 |
| 20260507011555 | 74 | 252 | 3.5 | 8.7 | 0.00 | 0.00 | 0.00 | 61 | 1017.7 |
| 20260507011044 | 74 | 260 | 4.3 | 8.7 | 0.00 | 0.00 | 0.00 | 60 | 1017.7 |
| 20260507010544 | 74 | 226 | 4.3 | 9.6 | 0.00 | 0.00 | 0.00 | 61 | 1017.6 |
| 20260507010052 | 74 | 253 | 3.5 | 9.6 | 0.00 | 0.00 | 0.00 | 60 | 1017.5 |
| 20260507005545 | 74 | 252 | 3.5 | 7.8 | 0.00 | 0.00 | 0.00 | 60 | 1017.6 |
| 20260507005048 | 75 | 324 | 1.7 | 7.8 | 0.00 | 0.00 | 0.00 | 61 | 1017.6 |
| 20260507004553 | 74 | 262 | 4.3 | 7.8 | 0.00 | 0.00 | 0.00 | 59 | 1017.7 |
| 20260507004048 | 75 | 233 | 3.5 | 7.8 | 0.00 | 0.00 | 0.00 | 60 | 1017.7 |
| 20260507003546 | 74 | 261 | 3.5 | 7.8 | 0.00 | 0.00 | 0.00 | 59 | 1017.7 |
| 20260507003054 | 74 | 271 | 3.5 | 7.8 | 0.00 | 0.00 | 0.00 | 60 | 1017.6 |
| 20260507002547 | 75 | 236 | 5.2 | 7.8 | 0.00 | 0.00 | 0.00 | 58 | 1017.6 |
| 20260507002046 | 75 | 307 | 3.5 | 6.1 | 0.00 | 0.00 | 0.00 | 57 | 1017.6 |
| 20260507001605 | 75 | 360 | 3.5 | 6.1 | 0.00 | 0.00 | 0.00 | 57 | 1017.7 |
| 20260507001047 | 75 | 248 | 2.6 | 7.0 | 0.00 | 0.00 | 0.00 | 57 | 1017.7 |
| 20260507000547 | 75 | 280 | 2.6 | 7.0 | 0.00 | 0.00 | 0.00 | 59 | 1017.7 |
| 20260507000054 | 75 | 266 | 2.6 | 6.1 | 0.00 | 0.00 | 0.00 | 58 | 1017.8 |
| 20260506235545 | 75 | 293 | 2.6 | 7.0 | 0.00 | 0.00 | 0.00 | 58 | 1017.8 |
| 20260506235050 | 75 | 288 | 3.5 | 7.8 | 0.00 | 0.00 | 0.00 | 58 | 1017.8 |
| 20260506234557 | 75 | 273 | 3.5 | 7.8 | 0.00 | 0.00 | 0.00 | 58 | 1017.9 |
| 20260506234047 | 75 | 253 | 2.6 | 7.8 | 0.00 | 0.00 | 0.00 | 58 | 1017.8 |
| 20260506233547 | 75 | 233 | 3.5 | 7.8 | 0.00 | 0.00 | 0.00 | 57 | 1017.9 |
| 20260506233108 | 76 | 276 | 2.6 | 9.6 | 0.00 | 0.00 | 0.00 | 58 | 1017.9 |
| 20260506232546 | 75 | 226 | 1.7 | 9.6 | 0.00 | 0.00 | 0.00 | 57 | 1017.9 |
| 20260506232048 | 76 | 255 | 2.6 | 9.6 | 0.00 | 0.00 | 0.00 | 56 | 1017.9 |
| 20260506231555 | 75 | 255 | 2.6 | 7.0 | 0.00 | 0.00 | 0.00 | 56 | 1018.0 |
| 20260506231045 | 76 | 236 | 2.6 | 7.0 | 0.00 | 0.00 | 0.00 | 57 | 1018.1 |
| 20260506230547 | 75 | 312 | 1.7 | 5.2 | 0.00 | 0.00 | 0.00 | 59 | 1018.0 |
| 20260506230057 | 75 | 307 | 1.7 | 7.8 | 0.00 | 0.00 | 0.00 | 60 | 1018.2 |
| 20260506225545 | 75 | 338 | 3.5 | 7.8 | 0.00 | 0.00 | 0.00 | 57 | 1018.3 |
| 20260506225045 | 75 | 307 | 1.7 | 7.0 | 0.00 | 0.00 | 0.00 | 56 | 1018.3 |
| 20260506224556 | 74 | 250 | 3.5 | 7.8 | 0.00 | 0.00 | 0.00 | 57 | 1018.3 |
| 20260506224044 | 74 | 287 | 2.6 | 7.8 | 0.00 | 0.00 | 0.00 | 58 | 1018.4 |
| 20260506223552 | 74 | 309 | 2.6 | 7.0 | 0.00 | 0.00 | 0.00 | 57 | 1018.6 |
| 20260506223055 | 74 | 44 | 2.6 | 7.0 | 0.00 | 0.00 | 0.00 | 58 | 1018.6 |
| 20260506222545 | 75 | 245 | 2.6 | 6.1 | 0.00 | 0.00 | 0.00 | 57 | 1018.6 |
| 20260506222047 | 74 | 269 | 2.6 | 6.1 | 0.00 | 0.00 | 0.00 | 58 | 1018.6 |
| 20260506221559 | 75 | 312 | 0.9 | 7.0 | 0.00 | 0.00 | 0.00 | 57 | 1018.6 |
| 20260506221044 | 74 | 84 | 2.6 | 7.8 | 0.00 | 0.00 | 0.00 | 57 | 1018.8 |
| 20260506220545 | 74 | 254 | 2.6 | 7.8 | 0.00 | 0.00 | 0.00 | 58 | 1018.8 |
| 20260506220052 | 74 | 268 | 2.6 | 6.1 | 0.00 | 0.00 | 0.00 | 60 | 1018.9 |
| 20260506215549 | 74 | 302 | 1.7 | 7.0 | 0.00 | 0.00 | 0.00 | 57 | 1019.0 |
| 20260506215045 | 74 | 271 | 1.7 | 7.0 | 0.00 | 0.00 | 0.00 | 56 | 1019.1 |
| 20260506214554 | 74 | 285 | 1.7 | 7.0 | 0.00 | 0.00 | 0.00 | 58 | 1018.9 |
| 20260506214045 | 74 | 258 | 1.7 | 7.0 | 0.00 | 0.00 | 0.00 | 57 | 1018.9 |
| 20260506213545 | 74 | 329 | 1.7 | 7.8 | 0.00 | 0.00 | 0.00 | 56 | 1019.1 |
| 20260506213110 | 74 | 328 | 1.7 | 7.8 | 0.00 | 0.00 | 0.00 | 56 | 1019.2 |
| 20260506212551 | 74 | 293 | 1.7 | 6.1 | 0.00 | 0.00 | 0.00 | 55 | 1019.4 |
| 20260506212048 | 74 | 45 | 2.6 | 6.1 | 0.00 | 0.00 | 0.00 | 55 | 1019.2 |
| 20260506211551 | 74 | 62 | 1.7 | 7.8 | 0.00 | 0.00 | 0.00 | 53 | 1019.3 |
| 20260506211045 | 74 | 311 | 1.7 | 7.8 | 0.00 | 0.00 | 0.00 | 54 | 1019.3 |
| 20260506210544 | 74 | 245 | 2.6 | 7.8 | 0.00 | 0.00 | 0.00 | 53 | 1019.4 |
| 20260506210055 | 74 | 25 | 1.7 | 6.1 | 0.00 | 0.00 | 0.00 | 54 | 1019.3 |
| 20260506205544 | 74 | 323 | 2.6 | 6.1 | 0.00 | 0.00 | 0.00 | 54 | 1019.3 |
| 20260506205044 | 73 | 105 | 0.9 | 5.2 | 0.00 | 0.00 | 0.00 | 55 | 1019.3 |
| 20260506204553 | 73 | 127 | 1.7 | 6.1 | 0.00 | 0.00 | 0.00 | 56 | 1019.4 |
| 20260506204044 | 73 | 44 | 2.6 | 6.1 | 0.00 | 0.00 | 0.00 | 56 | 1019.4 |
| 20260506203545 | 73 | 293 | 1.7 | 5.2 | 0.00 | 0.00 | 0.00 | 56 | 1019.6 |
| 20260506203050 | 72 | 319 | 0.9 | 5.2 | 0.00 | 0.00 | 0.00 | 57 | 1019.5 |
| 20260506202545 | 72 | 263 | 2.6 | 5.2 | 0.00 | 0.00 | 0.00 | 57 | 1019.6 |
| 20260506202048 | 71 | 212 | 1.7 | 5.2 | 0.00 | 0.00 | 0.00 | 57 | 1019.7 |
| 20260506201551 | 71 | 20 | 2.6 | 5.2 | 0.00 | 0.00 | 0.00 | 59 | 1019.9 |
| 20260506201044 | 71 | 288 | 1.7 | 4.3 | 0.00 | 0.00 | 0.00 | 62 | 1019.9 |
| 20260506200545 | 70 | 330 | 0.9 | 6.1 | 0.00 | 0.00 | 0.00 | 62 | 1020.0 |
| 20260506200048 | 70 | 51 | 2.6 | 6.1 | 0.00 | 0.00 | 0.00 | 62 | 1020.2 |
| 20260506195545 | 70 | 49 | 1.7 | 7.8 | 0.00 | 0.00 | 0.00 | 63 | 1020.2 |
| 20260506195048 | 70 | 292 | 1.7 | 7.8 | 0.00 | 0.00 | 0.00 | 63 | 1020.0 |
| 20260506194552 | 69 | 288 | 3.5 | 7.8 | 0.00 | 0.00 | 0.00 | 63 | 1020.3 |
| 20260506194048 | 70 | 309 | 3.5 | 6.1 | 0.00 | 0.00 | 0.00 | 63 | 1020.2 |
| 20260506193544 | 70 | 41 | 1.7 | 6.1 | 0.00 | 0.00 | 0.00 | 63 | 1020.2 |
| 20260506193050 | 71 | 324 | 2.6 | 6.1 | 0.00 | 0.00 | 0.00 | 62 | 1020.5 |
| 20260506192544 | 71 | 31 | 2.6 | 6.1 | 0.00 | 0.00 | 0.00 | 62 | 1020.4 |
| 20260506192045 | 71 | 264 | 0.9 | 5.2 | 0.00 | 0.00 | 0.00 | 62 | 1020.3 |
| 20260506191552 | 71 | 212 | 2.6 | 5.2 | 0.00 | 0.00 | 0.00 | 60 | 1020.5 |
| 20260506191046 | 70 | 205 | 0.9 | 4.3 | 0.00 | 0.00 | 0.00 | 63 | 1020.4 |
| 20260506190544 | 69 | 118 | 1.7 | 6.1 | 0.00 | 0.00 | 0.00 | 63 | 1020.4 |
| 20260506190051 | 69 | 276 | 1.7 | 6.1 | 0.00 | 0.00 | 0.00 | 64 | 1020.3 |
| 20260506185545 | 70 | 302 | 3.5 | 6.1 | 0.00 | 0.00 | 0.00 | 64 | 1020.3 |
| 20260506185045 | 70 | 278 | 0.9 | 4.3 | 0.00 | 0.00 | 0.00 | 64 | 1020.3 |
| 20260506184549 | 70 | 57 | 0.9 | 4.3 | 0.00 | 0.00 | 0.00 | 63 | 1020.4 |
| 20260506184045 | 70 | 65 | 2.6 | 4.3 | 0.00 | 0.00 | 0.00 | 64 | 1020.5 |
| 20260506183549 | 69 | 28 | 0.9 | 5.2 | 0.00 | 0.00 | 0.00 | 65 | 1020.5 |
| 20260506183051 | 68 | 206 | 2.6 | 6.1 | 0.00 | 0.00 | 0.00 | 64 | 1020.6 |
| 20260506182544 | 69 | 241 | 0.9 | 6.1 | 0.00 | 0.00 | 0.00 | 65 | 1020.6 |
| 20260506182120 | 68 | 291 | 1.7 | 6.1 | 0.00 | 0.00 | 0.00 | 64 | 1020.7 |
| 20260506181551 | 68 | 324 | 0.9 | 6.1 | 0.00 | 0.00 | 0.00 | 66 | 1020.5 |
| 20260506181045 | 67 | 291 | 2.6 | 6.1 | 0.00 | 0.00 | 0.00 | 66 | 1020.6 |
| 20260506180548 | 67 | 198 | 0.9 | 5.2 | 0.00 | 0.00 | 0.00 | 66 | 1020.6 |
| 20260506175545 | 68 | 229 | 0.9 | 3.5 | 0.00 | 0.00 | 0.00 | 66 | 1020.5 |
| 20260506175044 | 68 | 130 | 1.7 | 3.5 | 0.00 | 0.00 | 0.00 | 66 | 1020.5 |
| 20260506174553 | 66 | 129 | 0.9 | 4.3 | 0.00 | 0.00 | 0.00 | 68 | 1020.6 |
| 20260506174044 | 66 | 231 | 2.6 | 4.3 | 0.00 | 0.00 | 0.00 | 68 | 1020.7 |
| 20260506173545 | 66 | 228 | 2.6 | 4.3 | 0.00 | 0.00 | 0.00 | 68 | 1020.7 |
| 20260506173057 | 67 | 224 | 0.9 | 3.5 | 0.00 | 0.00 | 0.00 | 67 | 1020.6 |
| 20260506172546 | 67 | 136 | 1.7 | 3.5 | 0.00 | 0.00 | 0.00 | 67 | 1020.8 |
| 20260506172048 | 67 | 114 | 0.9 | 4.3 | 0.00 | 0.00 | 0.00 | 67 | 1020.8 |
| 20260506171558 | 66 | 191 | 1.7 | 4.3 | 0.00 | 0.00 | 0.00 | 68 | 1020.8 |
| 20260506171047 | 66 | 153 | 0.9 | 3.5 | 0.00 | 0.00 | 0.00 | 67 | 1020.8 |
| 20260506170548 | 65 | 112 | 1.7 | 3.5 | 0.00 | 0.00 | 0.00 | 69 | 1020.9 |
| 20260506170103 | 64 | 282 | 1.7 | 3.5 | 0.00 | 0.00 | 0.00 | 72 | 1020.8 |
| 20260506165545 | 63 | 167 | 1.7 | 4.3 | 0.00 | 0.00 | 0.00 | 70 | 1020.8 |
| 20260506165046 | 63 | 136 | 0.9 | 4.3 | 0.00 | 0.00 | 0.00 | 73 | 1020.8 |
| 20260506164553 | 63 | 0 | 1.7 | 5.2 | 0.00 | 0.00 | 0.00 | 70 | 1020.7 |
| 20260506164049 | 63 | 105 | 0.9 | 5.2 | 0.00 | 0.00 | 0.00 | 74 | 1020.8 |
| 20260506163547 | 62 | 276 | 1.7 | 5.2 | 0.00 | 0.00 | 0.00 | 72 | 1020.7 |
| 20260506163114 | 62 | 110 | 1.7 | 4.3 | 0.00 | 0.00 | 0.00 | 74 | 1020.8 |
| 20260506162544 | 61 | 210 | 0.9 | 4.3 | 0.00 | 0.00 | 0.00 | 74 | 1020.8 |
| 20260506162046 | 61 | 278 | 1.7 | 4.3 | 0.00 | 0.00 | 0.00 | 75 | 1020.7 |
| 20260506161551 | 61 | 259 | 1.7 | 4.3 | 0.00 | 0.00 | 0.00 | 75 | 1020.8 |
| 20260506161044 | 60 | 272 | 1.7 | 4.3 | 0.00 | 0.00 | 0.00 | 77 | 1020.8 |
| 20260506160544 | 60 | 243 | 0.9 | 4.3 | 0.00 | 0.00 | 0.00 | 77 | 1020.9 |
| 20260506160049 | 60 | 231 | 1.7 | 5.2 | 0.00 | 0.00 | 0.00 | 77 | 1020.9 |
| 20260506155552 | 59 | 240 | 1.7 | 5.2 | 0.00 | 0.00 | 0.00 | 77 | 1020.9 |
| 20260506155045 | 59 | 228 | 1.7 | 5.2 | 0.00 | 0.00 | 0.00 | 77 | 1020.8 |
| 20260506154608 | 60 | 233 | 0.9 | 4.3 | 0.00 | 0.00 | 0.00 | 76 | 1020.9 |
| 20260506154046 | 59 | 117 | 1.7 | 4.3 | 0.00 | 0.00 | 0.00 | 77 | 1020.9 |
| 20260506153544 | 59 | 158 | 1.7 | 3.5 | 0.00 | 0.00 | 0.00 | 77 | 1020.9 |
| 20260506153058 | 59 | 233 | 1.7 | 3.5 | 0.00 | 0.00 | 0.00 | 77 | 1021.0 |
| 20260506152545 | 59 | 236 | 0.9 | 6.1 | 0.00 | 0.00 | 0.00 | 76 | 1021.0 |
| 20260506152048 | 59 | 155 | 1.7 | 6.1 | 0.00 | 0.00 | 0.00 | 76 | 1020.9 |
| 20260506151555 | 60 | 192 | 1.7 | 5.2 | 0.00 | 0.00 | 0.00 | 76 | 1020.9 |
| 20260506151045 | 59 | 174 | 1.7 | 5.2 | 0.00 | 0.00 | 0.00 | 78 | 1020.9 |
| 20260506150545 | 59 | 129 | 0.9 | 5.2 | 0.00 | 0.00 | 0.00 | 78 | 1020.9 |
| 20260506150053 | 58 | 233 | 0.9 | 4.3 | 0.00 | 0.00 | 0.00 | 79 | 1020.9 |
| 20260506145545 | 58 | 146 | 1.7 | 4.3 | 0.00 | 0.00 | 0.00 | 79 | 1020.8 |
| 20260506145044 | 58 | 155 | 1.7 | 3.5 | 0.00 | 0.00 | 0.00 | 80 | 1020.9 |
| 20260506144553 | 57 | 136 | 0.9 | 3.5 | 0.00 | 0.00 | 0.00 | 82 | 1020.8 |
| 20260506144044 | 56 | 176 | 0.9 | 2.6 | 0.00 | 0.00 | 0.00 | 83 | 1020.9 |
| 20260506143545 | 56 | 134 | 0.9 | 2.6 | 0.00 | 0.00 | 0.00 | 83 | 1020.8 |
| 20260506143105 | 56 | 137 | 0.9 | 2.6 | 0.00 | 0.00 | 0.00 | 83 | 1020.7 |
| 20260506142546 | 55 | 128 | 0.0 | 2.6 | 0.00 | 0.00 | 0.00 | 84 | 1020.7 |
| 20260506142048 | 55 | 152 | 0.9 | 2.6 | 0.00 | 0.00 | 0.00 | 84 | 1020.6 |
| 20260506141552 | 55 | 149 | 0.0 | 2.6 | 0.00 | 0.00 | 0.00 | 85 | 1020.6 |
| 20260506141048 | 55 | 168 | 0.9 | 2.6 | 0.00 | 0.00 | 0.00 | 85 | 1020.6 |
| 20260506140548 | 55 | 156 | 0.9 | 1.7 | 0.00 | 0.00 | 0.00 | 85 | 1020.4 |
| 20260506140054 | 54 | 153 | 0.0 | 1.7 | 0.00 | 0.00 | 0.00 | 85 | 1020.3 |
| 20260506135547 | 54 | 147 | 0.0 | 1.7 | 0.00 | 0.00 | 0.00 | 86 | 1020.3 |
| 20260506135047 | 54 | 143 | 0.9 | 1.7 | 0.00 | 0.00 | 0.00 | 86 | 1020.3 |
| 20260506134552 | 54 | 0 | 0.0 | 0.0 | 0.00 | 0.00 | 0.00 | 86 | 1020.2 |
| 20260506134044 | 54 | 0 | 0.0 | 0.0 | 0.00 | 0.00 | 0.00 | 86 | 1020.2 |
| 20260506133547 | 54 | 0 | 0.0 | 0.0 | 0.00 | 0.00 | 0.00 | 86 | 1020.2 |
| 20260506133055 | 54 | 0 | 0.0 | 0.0 | 0.00 | 0.00 | 0.00 | 86 | 1020.3 |
| 20260506132547 | 54 | 0 | 0.0 | 0.0 | 0.00 | 0.00 | 0.00 | 86 | 1020.2 |
| 20260506132047 | 54 | 0 | 0.0 | 0.0 | 0.00 | 0.00 | 0.00 | 86 | 1020.2 |
| 20260506131555 | 54 | 0 | 0.0 | 0.0 | 0.00 | 0.00 | 0.00 | 86 | 1020.1 |
| 20260506131047 | 54 | 0 | 0.0 | 0.0 | 0.00 | 0.00 | 0.00 | 85 | 1020.0 |
| 20260506130548 | 54 | 0 | 0.0 | 0.0 | 0.00 | 0.00 | 0.00 | 85 | 1020.0 |
| 20260506130052 | 54 | 0 | 0.0 | 0.0 | 0.00 | 0.00 | 0.00 | 85 | 1020.0 |
| 20260506125549 | 54 | 0 | 0.0 | 0.0 | 0.00 | 0.00 | 0.00 | 85 | 1020.1 |
| 20260506125050 | 54 | 0 | 0.0 | 0.0 | 0.00 | 0.00 | 0.00 | 85 | 1020.0 |
| 20260506124548 | 54 | 0 | 0.0 | 0.0 | 0.00 | 0.00 | 0.00 | 84 | 1019.8 |
| 20260506124047 | 55 | 0 | 0.0 | 0.0 | 0.00 | 0.00 | 0.00 | 84 | 1019.9 |
| 20260506123545 | 55 | 0 | 0.0 | 0.9 | 0.00 | 0.00 | 0.00 | 84 | 1019.9 |
| 20260506123051 | 55 | 0 | 0.0 | 0.9 | 0.00 | 0.00 | 0.00 | 84 | 1020.0 |
| 20260506122547 | 55 | 0 | 0.0 | 1.7 | 0.00 | 0.00 | 0.00 | 84 | 1019.9 |
| 20260506122046 | 55 | 148 | 0.0 | 1.7 | 0.00 | 0.00 | 0.00 | 84 | 1020.0 |
| 20260506121552 | 55 | 195 | 0.9 | 2.6 | 0.00 | 0.00 | 0.00 | 84 | 1019.9 |
| 20260506121048 | 55 | 136 | 0.9 | 2.6 | 0.00 | 0.00 | 0.00 | 84 | 1019.8 |
| 20260506120548 | 55 | 137 | 0.0 | 1.7 | 0.00 | 0.00 | 0.00 | 84 | 1020.0 |
| 20260506120058 | 55 | 155 | 0.0 | 1.7 | 0.00 | 0.00 | 0.00 | 84 | 1019.9 |
| 20260506115548 | 55 | 150 | 0.0 | 1.7 | 0.00 | 0.00 | 0.00 | 84 | 1019.8 |
| 20260506115047 | 55 | 172 | 0.0 | 1.7 | 0.00 | 0.00 | 0.00 | 84 | 1019.8 |
| 20260506114604 | 55 | 135 | 0.0 | 1.7 | 0.00 | 0.00 | 0.00 | 84 | 1019.8 |
| 20260506114051 | 55 | 153 | 0.9 | 1.7 | 0.00 | 0.00 | 0.00 | 84 | 1019.7 |
| 20260506113549 | 55 | 162 | 0.0 | 0.9 | 0.00 | 0.00 | 0.00 | 84 | 1019.7 |
| 20260506113054 | 55 | 233 | 0.0 | 0.9 | 0.00 | 0.00 | 0.00 | 84 | 1019.8 |
| 20260506112547 | 55 | 233 | 0.0 | 0.9 | 0.00 | 0.00 | 0.00 | 85 | 1019.8 |
| 20260506112048 | 55 | 233 | 0.0 | 0.9 | 0.00 | 0.00 | 0.00 | 85 | 1019.6 |
| 20260506111553 | 55 | 193 | 0.0 | 0.9 | 0.00 | 0.00 | 0.00 | 85 | 1019.6 |
| 20260506111045 | 55 | 0 | 0.0 | 0.9 | 0.00 | 0.00 | 0.00 | 85 | 1019.7 |
| 20260506110545 | 54 | 141 | 0.0 | 0.9 | 0.00 | 0.00 | 0.00 | 85 | 1019.5 |
| 20260506110059 | 54 | 0 | 0.0 | 0.9 | 0.00 | 0.00 | 0.00 | 85 | 1019.6 |
| 20260506105545 | 54 | 149 | 0.0 | 0.9 | 0.00 | 0.00 | 0.00 | 85 | 1019.4 |
| 20260506105046 | 54 | 150 | 0.0 | 0.9 | 0.00 | 0.00 | 0.00 | 85 | 1019.5 |
| 20260506104555 | 54 | 158 | 0.0 | 1.7 | 0.00 | 0.00 | 0.00 | 85 | 1019.4 |
| 20260506104044 | 54 | 181 | 0.9 | 1.7 | 0.00 | 0.00 | 0.00 | 85 | 1019.5 |
| 20260506103547 | 54 | 146 | 0.0 | 1.7 | 0.00 | 0.00 | 0.00 | 85 | 1019.5 |
| 20260506103051 | 54 | 200 | 0.0 | 1.7 | 0.00 | 0.00 | 0.00 | 85 | 1019.4 |
| 20260506102545 | 54 | 172 | 0.9 | 2.6 | 0.00 | 0.00 | 0.00 | 85 | 1019.3 |
| 20260506102045 | 54 | 165 | 0.0 | 2.6 | 0.00 | 0.00 | 0.00 | 85 | 1019.4 |
| 20260506101604 | 54 | 158 | 0.9 | 2.6 | 0.00 | 0.00 | 0.00 | 85 | 1019.4 |
| 20260506101047 | 54 | 165 | 0.0 | 2.6 | 0.00 | 0.00 | 0.00 | 85 | 1019.4 |
| 20260506100545 | 54 | 153 | 0.9 | 2.6 | 0.00 | 0.00 | 0.00 | 85 | 1019.3 |
| 20260506100057 | 54 | 143 | 0.9 | 2.6 | 0.00 | 0.00 | 0.00 | 85 | 1019.2 |
| 20260506095547 | 54 | 163 | 0.9 | 2.6 | 0.00 | 0.00 | 0.00 | 85 | 1019.3 |
| 20260506095045 | 54 | 192 | 0.9 | 1.7 | 0.00 | 0.00 | 0.00 | 85 | 1019.3 |
| 20260506094621 | 54 | 188 | 0.0 | 1.7 | 0.00 | 0.00 | 0.00 | 85 | 1019.3 |
| 20260506094044 | 54 | 155 | 0.0 | 1.7 | 0.00 | 0.00 | 0.00 | 86 | 1019.1 |
| 20260506093546 | 54 | 207 | 0.0 | 2.6 | 0.00 | 0.00 | 0.00 | 86 | 1019.2 |
| 20260506093056 | 54 | 148 | 0.9 | 2.6 | 0.00 | 0.00 | 0.00 | 86 | 1019.1 |
| 20260506092545 | 54 | 148 | 0.0 | 1.7 | 0.00 | 0.00 | 0.00 | 86 | 1019.2 |
| 20260506092045 | 54 | 194 | 0.0 | 1.7 | 0.00 | 0.00 | 0.00 | 86 | 1019.2 |
| 20260506091555 | 54 | 233 | 0.9 | 1.7 | 0.00 | 0.00 | 0.00 | 86 | 1019.2 |
| 20260506091045 | 54 | 233 | 0.0 | 1.7 | 0.00 | 0.00 | 0.00 | 86 | 1019.2 |
| 20260506090544 | 54 | 204 | 0.0 | 1.7 | 0.00 | 0.00 | 0.00 | 86 | 1019.3 |
| 20260506090059 | 54 | 143 | 0.9 | 1.7 | 0.00 | 0.00 | 0.00 | 86 | 1019.3 |
| 20260506085545 | 54 | 150 | 0.0 | 1.7 | 0.00 | 0.05 | 0.00 | 86 | 1019.2 |
| 20260506085048 | 54 | 176 | 0.0 | 1.7 | 0.00 | 0.05 | 0.00 | 86 | 1019.3 |
| 20260506084603 | 54 | 201 | 0.9 | 1.7 | 0.00 | 0.05 | 0.00 | 85 | 1019.1 |
| 20260506084048 | 54 | 170 | 0.0 | 1.7 | 0.00 | 0.05 | 0.00 | 85 | 1019.4 |
| 20260506083546 | 54 | 253 | 0.0 | 1.7 | 0.00 | 0.05 | 0.00 | 85 | 1019.3 |
| 20260506083104 | 54 | 241 | 0.9 | 2.6 | 0.00 | 0.05 | 0.00 | 86 | 1019.2 |
| 20260506082548 | 54 | 139 | 0.9 | 2.6 | 0.00 | 0.05 | 0.00 | 86 | 1019.1 |
| 20260506082045 | 54 | 241 | 0.9 | 2.6 | 0.00 | 0.05 | 0.00 | 86 | 1019.2 |
| 20260506081559 | 54 | 0 | 0.9 | 2.6 | 0.00 | 0.05 | 0.00 | 86 | 1019.2 |
| 20260506081046 | 53 | 146 | 0.9 | 3.5 | 0.00 | 0.05 | 0.00 | 86 | 1019.1 |
| 20260506080548 | 53 | 122 | 0.9 | 3.5 | 0.00 | 0.05 | 0.00 | 86 | 1019.2 |
| 20260506073103 | 53 | 159 | 0.9 | 3.5 | 0.00 | 0.10 | 0.00 | 86 | 1018.9 |
| 20260506072549 | 53 | 143 | 1.7 | 4.3 | 0.00 | 0.10 | 0.00 | 86 | 1018.9 |
| 20260506072046 | 53 | 154 | 1.7 | 4.3 | 0.00 | 0.10 | 0.00 | 85 | 1018.9 |
| 20260506071557 | 53 | 150 | 0.9 | 3.5 | 0.00 | 0.10 | 0.00 | 85 | 1018.8 |
| 20260506071045 | 54 | 155 | 0.9 | 3.5 | 0.00 | 0.10 | 0.00 | 85 | 1018.7 |
| 20260506070545 | 54 | 139 | 0.9 | 3.5 | 0.00 | 0.10 | 0.00 | 85 | 1018.7 |
| 20260506070104 | 54 | 150 | 1.7 | 4.3 | 0.00 | 0.10 | 0.00 | 85 | 1018.7 |
| 20260506062045 | 54 | 212 | 0.9 | 5.2 | 0.00 | 0.15 | 0.10 | 84 | 1018.4 |
| 20260506061558 | 54 | 174 | 1.7 | 4.3 | 0.00 | 0.15 | 0.10 | 84 | 1018.3 |
| 20260506061045 | 54 | 132 | 0.9 | 5.2 | 0.00 | 0.15 | 0.10 | 84 | 1018.4 |
| 20260506060545 | 54 | 181 | 1.7 | 5.2 | 0.00 | 0.15 | 0.10 | 83 | 1018.2 |
| 20260506051047 | 56 | 167 | 2.6 | 7.0 | 0.00 | 0.18 | 0.10 | 80 | 1017.9 |
| 20260506050547 | 56 | 225 | 1.7 | 7.0 | 0.00 | 0.18 | 0.10 | 80 | 1017.8 |
| 20260506045049 | 57 | 142 | 1.7 | 4.3 | 0.00 | 0.23 | 0.10 | 79 | 1017.8 |
| 20260506044553 | 57 | 242 | 1.7 | 4.3 | 0.00 | 0.23 | 0.10 | 79 | 1017.7 |
| 20260506044047 | 57 | 231 | 0.9 | 6.1 | 0.00 | 0.23 | 0.10 | 79 | 1017.7 |
| 20260506043548 | 57 | 244 | 0.9 | 6.1 | 0.00 | 0.23 | 0.10 | 79 | 1017.6 |
| 20260506043055 | 57 | 248 | 2.6 | 7.0 | 0.00 | 0.23 | 0.10 | 78 | 1017.6 |
| 20260506042548 | 57 | 155 | 1.7 | 7.0 | 0.00 | 0.23 | 0.10 | 78 | 1017.5 |
| 20260506042046 | 57 | 234 | 2.6 | 6.1 | 0.00 | 0.23 | 0.10 | 78 | 1017.3 |
| 20260506041554 | 57 | 226 | 2.6 | 6.1 | 0.00 | 0.23 | 0.10 | 78 | 1017.3 |
| 20260506041048 | 57 | 223 | 1.7 | 6.1 | 0.00 | 0.23 | 0.10 | 78 | 1017.3 |
| 20260506040549 | 58 | 229 | 1.7 | 6.1 | 0.00 | 0.23 | 0.10 | 78 | 1017.2 |
| 20260506040100 | 58 | 241 | 1.7 | 6.1 | 0.00 | 0.23 | 0.10 | 78 | 1017.2 |
| 20260506035547 | 58 | 216 | 1.7 | 6.1 | 0.00 | 0.23 | 0.10 | 79 | 1017.1 |
| 20260506035047 | 58 | 282 | 1.7 | 6.1 | 0.00 | 0.23 | 0.10 | 78 | 1017.1 |
| 20260506034605 | 58 | 255 | 1.7 | 6.1 | 0.00 | 0.23 | 0.10 | 78 | 1017.1 |
| 20260506034047 | 58 | 250 | 2.6 | 7.8 | 0.00 | 0.23 | 0.10 | 78 | 1017.0 |
| 20260506033547 | 58 | 237 | 1.7 | 7.8 | 0.00 | 0.23 | 0.10 | 78 | 1016.9 |
| 20260506033052 | 58 | 264 | 2.6 | 5.2 | 0.00 | 0.23 | 0.10 | 78 | 1016.8 |
| 20260506032549 | 58 | 233 | 0.9 | 4.3 | 0.00 | 0.23 | 0.10 | 77 | 1016.7 |
| 20260506032048 | 58 | 234 | 1.7 | 5.2 | 0.00 | 0.23 | 0.10 | 77 | 1016.6 |
| 20260506031600 | 58 | 142 | 1.7 | 5.2 | 0.00 | 0.23 | 0.10 | 77 | 1016.5 |
| 20260506031050 | 59 | 150 | 1.7 | 4.3 | 0.00 | 0.23 | 0.10 | 76 | 1016.5 |
| 20260506030549 | 59 | 210 | 1.7 | 5.2 | 0.00 | 0.23 | 0.10 | 76 | 1016.4 |
| 20260506030048 | 59 | 134 | 2.6 | 5.2 | 0.00 | 0.23 | 0.10 | 76 | 1016.4 |
| 20260506025548 | 59 | 267 | 1.7 | 6.1 | 0.00 | 0.23 | 0.10 | 76 | 1016.4 |
| 20260506025048 | 59 | 269 | 1.7 | 7.0 | 0.00 | 0.23 | 0.10 | 75 | 1016.4 |
| 20260506024552 | 59 | 245 | 0.9 | 7.8 | 0.00 | 0.23 | 0.10 | 75 | 1016.5 |
| 20260506024048 | 59 | 238 | 1.7 | 7.8 | 0.00 | 0.23 | 0.10 | 75 | 1016.4 |
| 20260506023546 | 59 | 247 | 2.6 | 6.1 | 0.00 | 0.23 | 0.10 | 75 | 1016.3 |
| 20260506023059 | 59 | 165 | 0.9 | 7.0 | 0.00 | 0.23 | 0.10 | 75 | 1016.1 |
| 20260506022545 | 60 | 235 | 2.6 | 7.0 | 0.00 | 0.23 | 0.10 | 75 | 1016.2 |
| 20260506022047 | 60 | 269 | 1.7 | 7.0 | 0.00 | 0.23 | 0.10 | 76 | 1016.1 |
| 20260506021557 | 60 | 235 | 2.6 | 7.0 | 0.00 | 0.23 | 0.10 | 75 | 1016.2 |
| 20260506021047 | 60 | 203 | 2.6 | 6.1 | 0.00 | 0.23 | 0.10 | 75 | 1016.2 |
| 20260506020546 | 60 | 202 | 2.6 | 7.0 | 0.00 | 0.23 | 0.10 | 75 | 1016.2 |
| 20260506020101 | 60 | 274 | 1.7 | 9.6 | 0.00 | 0.23 | 0.10 | 75 | 1016.1 |